sat.trackr.live / text

‹ back to catalog

STARLINK-3181

NORAD 51461 · 2022-010F

PAYLOAD ACTIVE UNKNOWN

§ Identity

Operator
Country
US
Launch date
2022-02-03
Launch site
AFETR
Launch vehicle
Mass (kg)
RCS (m²)

Purposes: comms

External: N2YO · Heavens-Above · Gunter

§ Orbital elements

Epoch: 2026-09-19T22:10:29.597952Z

Period
93.79 min
Inclination
53.1600°
Eccentricity
0.0001279
Mean motion
15.35393847 rev/d
Perigee alt
458.9 km
Apogee alt
460.6 km
Semi-major
6,837.9 km
B*
1.7183e-5
RAAN
118.1516°
Arg perigee
97.6011°
Mean anomaly
262.5137°
Rev number
25,626

§ Raw data

STARLINK-31811 51461U 22010F   26262.92395368  .00000219  00000+0  17183-4 0  99902 51461  53.1600 118.1516 0001279  97.6011 262.5137 15.35393847256265

JSON: /api/v1/satellites/51461 · /tle

For live sub-satellite position, see the globe view (requires WebGL).

§ Visibility from observer

Set your observer location to see the next 7 days of passes ≥ 10°. The values pass through the URL so the page stays shareable.

No JS? Fill the form by hand. The geolocation button needs JavaScript.